Regional Weather Roundup
Issued by NWS

Home | Current Version | Previous Version | Text Only | Print | Product List | Glossary On
Versions: 1 2 3 4 5 6 7 8 9 10 11 12 13 14 15 16 17 18 19 20 21 22 23 24 25 26 27
000
ASUS46 KPQR 201910
RWROR

OREGON REGIONAL WEATHER ROUNDUP
NATIONAL WEATHER SERVICE PORTLAND OR
1100 AM PST MON NOV 20 2017

NOTE: "FAIR" INDICATES FEW OR NO CLOUDS BELOW 12,000 FEET WITH
NO SIGNIFICANT WEATHER AND/OR OBSTRUCTIONS TO VISIBILITY.

ORZ001>013-202000-
NORTHWEST OREGON


CITY           SKY/WX    TMP DP  RH WIND       PRES   REMARKS
ASTORIA        PTSUNNY   51  46  83 W5        29.79R
NEWPORT        CLOUDY    52  50  93 W8        29.88  FOG
PORTLAND       LGT RAIN  51  48  89 CALM      29.78R
VANCOUVER WA   LGT RAIN  51  49  92 SW3       29.77R
SCAPPOOSE      MOSUNNY   54  52  93 NW7       29.77R
HILLSBORO      CLOUDY    51  47  86 NW6       29.76R
AURORA         PTSUNNY   58  51  78 SW9       29.79R
MCMINNVILLE    SUNNY     57  49  74 W16       29.78R
SALEM          PTSUNNY   56  49  77 SW13      29.79R
CORVALLIS      CLOUDY    55  50  83 CALM      29.82R
EUGENE         CLOUDY    53  51  93 W9        29.85R
$$

ORZ021-028-202000-
SOUTHWEST OREGON


CITY           SKY/WX    TMP DP  RH WIND       PRES   REMARKS
NORTH BEND     LGT RAIN  53  52  96 W6        29.91R FOG
BROOKINGS      LGT RAIN  55  55 100 S9        29.94R VSB 1/4
ROSEBURG       LGT RAIN  55  53  93 S6        29.86R FOG
SEXTON SUMMIT  FOG       49  48  97 SW17G24   29.89R VSB<1/4
GRANTS PASS    PTSUNNY   46  45  93 CALM      29.94R
MEDFORD        LGT RAIN  44  43  96 NW3       29.93R FOG
$$

ORZ014>016-041-202000-
COLUMBIA GORGE


CITY           SKY/WX    TMP DP  RH WIND       PRES   REMARKS
TROUTDALE      LGT RAIN  51  47  86 W5        29.78R FOG
HOOD RIVER     DRIZZLE   45  43  93 S6        29.69R
THE DALLES     CLOUDY    46  44  93 E3        29.70R
$$

ORZ029>031-041-044-049-050-061>064-502-503-505>511-202000-
EASTERN OREGON


CITY           SKY/WX    TMP DP  RH WIND       PRES   REMARKS
MADRAS         RAIN     N/A N/A N/A S18       29.72R
REDMOND        PTSUNNY   51  44  77 S17G35    29.74R
BEND           DRIZZLE   50  45  81 S20       29.78S
PRINEVILLE     PTSUNNY   54  43  66 S17G26    29.76S
KLAMATH FALLS  CLOUDY    49  43  80 S13       29.95R
HERMISTON      PTSUNNY   53  43  68 N3        29.62R
PENDLETON      CLOUDY    64  44  48 SW33G43   29.63R
JOHN DAY       CLOUDY    55  41  58 S24G31    29.81F
MEACHAM        CLOUDY    43  39  86 VRB3      29.73S
LA GRANDE      CLOUDY    44  36  73 S13G30    29.81F
BAKER CITY     CLOUDY    44  36  73 E20G26    29.86S
BURNS          CLOUDY    45  41  86 E3        29.90F
ROME             N/A     45  42  89 CALM      29.94F
ONTARIO        NOT AVBL
$$




USA.gov is the U.S. government's official web portal to all federal, state and local government web resources and services.